Regional Weather Roundup
Issued by NWS

Home | Current Version | Previous Version | Text Only | Print | Product List | Glossary Off
Versions: 1 2 3 4 5 6 7 8 9 10 11 12 13 14 15 16 17 18 19 20 21 22 23 24 25 26 27 28 29 30 31 32 33 34 35 36 37 38 39 40 41 42 43 44 45 46 47 48 49 50

000
ASUS43 KBIS 260059
RWRND

NORTH DAKOTA REGIONAL WEATHER ROUNDUP
NATIONAL WEATHER SERVICE BISMARCK ND
800 PM CDT SAT OCT 25 2014

NOTE: "FAIR" INDICATES FEW OR NO CLOUDS BELOW 12,000 FEET WITH NO
SIGNIFICANT WEATHER AND/OR OBSTRUCTIONS TO VISIBILITY.


NDZ001>003-009>011-017-260200-
NORTHWEST NORTH DAKOTA

CITY           SKY/WX    TMP DP  RH WIND       PRES   REMARKS
WILLISTON      CLEAR     51  30  44 E7        29.89F
MINOT          CLEAR     46  27  47 E6        29.97F
$$

NDZ018>021-031>035-040>046-260200-
SOUTHWEST NORTH DAKOTA

CITY           SKY/WX    TMP DP  RH WIND       PRES   REMARKS
BISMARCK       CLEAR     46  31  55 E7        30.01F
DICKINSON      CLEAR     50  32  50 SE13      29.90F
GARRISON         N/A     49  32  52 SE7       29.97F
HETTINGER ARPT CLEAR     52  32  46 SE10      29.94F
$$

NDZ004>008-012>016-024-026-027-054-260200-
NORTHEAST NORTH DAKOTA

CITY           SKY/WX    TMP DP  RH WIND       PRES   REMARKS
GRAND FORKS    CLEAR     45  25  45 W6        30.01F
DEVILS LAKE    CLEAR     43  27  52 CALM      30.01S
$$

NDZ022-023-025-028>030-036>039-047>053-260200-
SOUTHEAST NORTH DAKOTA

CITY           SKY/WX    TMP DP  RH WIND       PRES   REMARKS
FARGO          CLEAR     46  24  42 S3        30.04F
$$




USA.gov is the U.S. government's official web portal to all federal, state and local government web resources and services.